This is the latest recevied weather packets stored in our database for station/object IZ2WYA-13. If no packets are shown the sender has not sent any weather packets the latest 10 day(s).
| Time | Temp. | Humidity | Pressure | Rain* | Wind** | Luminosity | Snow |
|---|---|---|---|---|---|---|---|
| 1788574624 | 23.89° C | 54% | 1020.1 hPa | - | - | - | - |
| 1788572823 | 23.89° C | 50% | 1020 hPa | - | - | - | - |
| 1788571021 | 24.44° C | 49% | 1019.9 hPa | - | - | - | - |
| 1788569220 | 24.44° C | 49% | 1019.9 hPa | - | - | - | - |
| 1788567419 | 25° C | 48% | 1020 hPa | - | - | - | - |
| 1788565617 | 25.56° C | 47% | 1020.1 hPa | - | - | - | - |
| 1788563816 | 25.56° C | 46% | 1020.1 hPa | - | - | - | - |
| 1788562015 | 26.11° C | 45% | 1020.1 hPa | - | - | - | - |
| 1788560213 | 26.11° C | 45% | 1020.1 hPa | - | - | - | - |
| 1788558441 | 26.11° C | 46% | 1020.2 hPa | - | - | - | - |
| 1788556627 | 26.67° C | 44% | 1020.3 hPa | - | - | - | - |
| 1788554809 | 26.67° C | 45% | 1020.3 hPa | - | - | - | - |
| 1788553008 | 26.67° C | 45% | 1020.3 hPa | - | - | - | - |
| 1788551207 | 27.22° C | 44% | 1020 hPa | - | - | - | - |
| 1788549405 | 27.22° C | 42% | 1019.7 hPa | - | - | - | - |
| 1788547604 | 27.78° C | 44% | 1019.4 hPa | - | - | - | - |
| 1788545803 | 27.78° C | 44% | 1019 hPa | - | - | - | - |
| 1788544001 | 28.33° C | 43% | 1018.6 hPa | - | - | - | - |
| 1788542200 | 28.89° C | 42% | 1018.3 hPa | - | - | - | - |
| 1788540398 | 28.89° C | 42% | 1018.3 hPa | - | - | - | - |
| 1788538597 | 28.89° C | 42% | 1018.2 hPa | - | - | - | - |
| 1788536796 | 28.89° C | 42% | 1018.1 hPa | - | - | - | - |
| 1788534995 | 28.89° C | 41% | 1018.2 hPa | - | - | - | - |
| 1788533193 | 28.89° C | 40% | 1018.4 hPa | - | - | - | - |
| 1788531392 | 28.89° C | 40% | 1018.6 hPa | - | - | - | - |
* Rain since midnight (hover to see other rain measurements)
** Current wind speed in m/s (hover to see current wind gust speed)